Weather History for Wright-Patt AFB, OH

Change the Weather History Date:

Friday, June 7, 2013

  Actual Average Record
Temperature  
Mean Temperature 64 °F -  
Max Temperature 73 °F 75 °F 92 °F (2011)
Min Temperature 56 °F 56 °F 41 °F (1998)
Growing Degree Days 14 (Base 50)    
Moisture  
Dew Point 54 °F    
Average Humidity 75    
Maximum Humidity 94    
Minimum Humidity 50    
Precipitation  
Precipitation 0.00 in - - ()
Sea Level Pressure  
Sea Level Pressure 29.86 in    
Wind  
Wind Speed 8 mph (NNE)    
Max Wind Speed 10 mph    
Max Gust Speed 21 mph    
Visibility 9 miles    
Events      
Averages and records for this station are not official NWS values.
T = Trace of Precipitation, MM = Missing Value Source: NWS Daily Summary

Daily Weather History Graph

Daily Weather History Graph

Search for Another Location

Airport:

Trip Planner

Search our weather history database for the weather conditions in past years. The results will help you decide how hot, cold, wet, or windy it might be!

Date:

Astronomy

Jun. 07, 2013 Rise Set
Actual Time 6:08 AM EDT 9:02 PM EDT
Civil Twilight 5:35 AM EDT 9:34 PM EDT
Nautical Twilight 4:54 AM EDT 10:15 PM EDT
Astronomical Twilight 4:07 AM EDT 11:03 PM EDT
Moon 5:29 AM EDT (6/7) 8:15 PM EDT (6/7)
Length of Visible Light 15h 59m
Length of Day
14h 54m
Waning Crescent, 1% of the Moon is Illuminated
Jun 7
Waning Crescent
Jun 8
New
Jun 16
First Quarter
Jun 23
Full
Jun 30
Last Quarter

Hourly Weather History & Observations

Time (EDT) Temp. Dew Point Humidity Pressure Visibility Wind Dir Wind Speed Gust Speed Precip Events Conditions
12:58 AM 58.6 °F 56.5 °F 93% 29.86 in 10.0 mi NE 8.1 mph - N/A   Overcast
1:18 AM 59.0 °F 57.2 °F 94% 29.85 in 9.0 mi NE 9.2 mph - N/A   Overcast
1:58 AM 58.8 °F 56.3 °F 91% 29.86 in 10.0 mi NNE 6.9 mph - N/A   Overcast
3:08 AM 59.0 °F 55.4 °F 88% 29.84 in 10.0 mi NE 9.2 mph - N/A   Overcast
3:18 AM 59.0 °F 55.4 °F 88% 29.84 in 10.0 mi North 5.8 mph - N/A   Overcast
3:28 AM 59.0 °F 55.4 °F 88% 29.84 in 10.0 mi NE 6.9 mph - N/A   Overcast
3:58 AM 58.5 °F 55.2 °F 89% 29.83 in 10.0 mi NE 5.8 mph - N/A   Overcast
4:48 AM 57.2 °F 55.4 °F 94% 29.84 in 10.0 mi ENE 4.6 mph - N/A   Overcast
5:18 AM 57.2 °F 55.4 °F 94% 29.84 in 9.0 mi North 6.9 mph - N/A   Overcast
6:08 AM 57.2 °F 53.6 °F 88% 29.85 in 8.0 mi NNE 8.1 mph - N/A   Overcast
6:58 AM 56.8 °F 53.6 °F 89% 29.87 in 5.0 mi NNE 9.2 mph - N/A   Overcast
7:58 AM 56.7 °F 53.6 °F 89% 29.86 in 5.0 mi North 8.1 mph - N/A   Overcast
8:30 AM 57.2 °F 53.6 °F 88% 29.86 in 7.0 mi North 9.2 mph - N/A   Overcast
8:50 AM 59.0 °F 53.6 °F 82% 29.86 in 9.0 mi NNE 8.1 mph - N/A   Overcast
8:58 AM 59.0 °F 53.6 °F 82% 29.86 in 7.0 mi NE 8.1 mph - N/A   Overcast
9:18 AM 59.0 °F 53.6 °F 82% 29.86 in 10.0 mi NNE 9.2 mph - N/A   Overcast
9:38 AM 60.8 °F 53.6 °F 77% 29.86 in 7.0 mi NNE 6.9 mph - N/A   Overcast
9:58 AM 60.4 °F 53.1 °F 77% 29.88 in 10.0 mi ENE 8.1 mph - N/A   Overcast
10:08 AM 60.8 °F 53.6 °F 77% 29.86 in 10.0 mi NNE 8.1 mph - N/A   Mostly Cloudy
10:58 AM 63.1 °F 54.3 °F 73% 29.86 in 10.0 mi NE 9.2 mph - N/A   Overcast
11:17 AM 64.4 °F 53.6 °F 68% 29.86 in 10.0 mi North 6.9 mph - N/A   Overcast
11:58 AM 66.2 °F 54.7 °F 66% 29.86 in 10.0 mi NNE 8.1 mph - N/A   Mostly Cloudy
12:08 PM 66.2 °F 55.4 °F 68% 29.86 in 10.0 mi NNE 10.4 mph - N/A   Mostly Cloudy
12:58 PM 68.5 °F 54.9 °F 62% 29.86 in 10.0 mi NNE 10.4 mph - N/A   Mostly Cloudy
1:58 PM 70.0 °F 55.2 °F 59% 29.84 in 10.0 mi NE 8.1 mph - N/A   Mostly Cloudy
2:58 PM 71.1 °F 54.1 °F 55% 29.84 in 10.0 mi North 5.8 mph 20.7 mph N/A   Scattered Clouds
3:58 PM 72.1 °F 53.8 °F 52% 29.83 in 10.0 mi North 6.9 mph - N/A   Scattered Clouds
4:04 PM 71.6 °F 53.6 °F 53% 29.83 in 10.0 mi NE 8.1 mph - N/A   Scattered Clouds
4:58 PM 72.7 °F 53.6 °F 51% 29.82 in 10.0 mi NNW 9.2 mph - N/A   Partly Cloudy
5:58 PM 73.2 °F 53.4 °F 50% 29.83 in 10.0 mi North 9.2 mph - N/A   Scattered Clouds
6:58 PM 71.4 °F 53.8 °F 54% 29.83 in 10.0 mi NNE 10.4 mph - N/A   Partly Cloudy
7:58 PM 69.6 °F 54.0 °F 57% 29.85 in 10.0 mi NNE 9.2 mph - N/A   Partly Cloudy
8:58 PM 66.4 °F 53.8 °F 64% 29.88 in 10.0 mi NNE 9.2 mph - N/A   Scattered Clouds
9:58 PM 62.1 °F 54.0 °F 75% 29.89 in 10.0 mi NE 8.1 mph - N/A   Scattered Clouds
10:58 PM 59.7 °F 52.3 °F 77% 29.92 in 10.0 mi NE 8.1 mph - N/A   Mostly Cloudy
11:58 PM 58.5 °F 52.3 °F 80% 29.93 in 10.0 mi NNE 3.5 mph - N/A   Mostly Cloudy